FENGYUN 3C

Last updated on Fri Sep 11 2026 00:02:39 GMT+0000 (Coordinated Universal Time)

1 39260U 13052A 26253.62904297 .00000027 00000+0 34807-4 0 9992 2 39260 98.5091 223.6217 0015419 134.1588 226.0858 14.15770861670652
UTC large
Height (km)
Speed (km/s)
/
Latitude / Longitude
Inclination (degrees)
Orbital Period (minutes)
Azimuth
Elevation
Range (km)
Doppler Factor

Next 0 passes for location: London (51.5072 / 0.1276)

No passes found over London.
FENGYUN 3C